QFA554 YSSY-YBBN

Flight info

Callsign QFA554
Flight time 1h 11m
Altitude 35000
Route OLSEM Y193 BANDA H252 BN
Aircraft B738/M-SDE2E3FGHIRWXY/LB1

Departure

Time 2026-04-22 10:37
Airport Sydney Kingsford Smith International Airport (YSSY)

Arrival

Time 2026-04-22 11:49
Airport Brisbane International Airport (YBBN)
Time Latitude Longitude Altitude Speed Heading
2026-04-22 09:44 -33.93095 151.17625 29 ft 0 kts 168°
2026-04-22 10:12 -33.93081 151.17621 29 ft 3 kts 170°
2026-04-22 10:12 -33.93061 151.17618 29 ft 3 kts 176°
2026-04-22 10:12 -33.93041 151.17618 29 ft 3 kts 188°
2026-04-22 10:12 -33.93022 151.17624 29 ft 3 kts 216°
2026-04-22 10:13 -33.93013 151.17635 29 ft 2 kts 271°
2026-04-22 10:13 -33.93013 151.17640 29 ft 0 kts 281°
2026-04-22 10:18 -33.93012 151.17637 29 ft 2 kts 282°
2026-04-22 10:18 -33.93008 151.17608 29 ft 6 kts 279°
2026-04-22 10:19 -33.93028 151.17553 29 ft 9 kts 221°
2026-04-22 10:19 -33.93094 151.17520 29 ft 11 kts 181°
2026-04-22 10:19 -33.93170 151.17537 29 ft 11 kts 168°
2026-04-22 10:19 -33.93243 151.17555 29 ft 11 kts 168°
2026-04-22 10:20 -33.93314 151.17575 29 ft 10 kts 167°
2026-04-22 10:20 -33.93361 151.17584 29 ft 5 kts 170°
2026-04-22 10:20 -33.93394 151.17592 29 ft 5 kts 169°
2026-04-22 10:20 -33.93426 151.17591 29 ft 5 kts 193°
2026-04-22 10:21 -33.93458 151.17584 29 ft 5 kts 184°
2026-04-22 10:21 -33.93468 151.17584 29 ft 0 kts 180°
2026-04-22 10:22 -33.93469 151.17583 29 ft 0 kts 191°
2026-04-22 10:22 -33.93471 151.17576 29 ft 1 kts 251°
2026-04-22 10:23 -33.93473 151.17539 29 ft 8 kts 259°
2026-04-22 10:23 -33.93518 151.17513 28 ft 9 kts 173°
2026-04-22 10:23 -33.93577 151.17528 28 ft 8 kts 166°
2026-04-22 10:23 -33.93624 151.17520 28 ft 2 kts 204°
2026-04-22 10:24 -33.93637 151.17521 28 ft 2 kts 163°
2026-04-22 10:24 -33.93648 151.17539 28 ft 3 kts 108°
2026-04-22 10:24 -33.93646 151.17575 28 ft 6 kts 86°
2026-04-22 10:24 -33.93655 151.17628 29 ft 7 kts 117°
2026-04-22 10:25 -33.93693 151.17666 29 ft 7 kts 155°
2026-04-22 10:25 -33.93738 151.17685 29 ft 7 kts 166°
2026-04-22 10:25 -33.93785 151.17697 29 ft 7 kts 169°
2026-04-22 10:25 -33.93829 151.17716 29 ft 7 kts 147°
2026-04-22 10:26 -33.93849 151.17743 29 ft 7 kts 125°
2026-04-22 10:26 -33.93899 151.17778 29 ft 6 kts 168°
2026-04-22 10:26 -33.93942 151.17790 28 ft 6 kts 167°
2026-04-22 10:26 -33.93985 151.17802 28 ft 6 kts 167°
2026-04-22 10:27 -33.94012 151.17809 28 ft 6 kts 167°
2026-04-22 10:27 -33.94053 151.17820 28 ft 6 kts 167°
2026-04-22 10:27 -33.94107 151.17832 28 ft 6 kts 169°
2026-04-22 10:27 -33.94133 151.17839 28 ft 6 kts 167°
2026-04-22 10:28 -33.94172 151.17850 29 ft 6 kts 167°
2026-04-22 10:28 -33.94211 151.17860 29 ft 6 kts 168°
2026-04-22 10:28 -33.94249 151.17869 29 ft 6 kts 169°
2026-04-22 10:28 -33.94287 151.17877 29 ft 5 kts 169°
2026-04-22 10:29 -33.94324 151.17887 29 ft 5 kts 167°
2026-04-22 10:29 -33.94372 151.17898 29 ft 5 kts 171°
2026-04-22 10:29 -33.94396 151.17903 29 ft 5 kts 169°
2026-04-22 10:29 -33.94432 151.17908 29 ft 5 kts 181°
2026-04-22 10:30 -33.94467 151.17896 29 ft 6 kts 203°
2026-04-22 10:30 -33.94506 151.17879 29 ft 6 kts 190°
2026-04-22 10:30 -33.94551 151.17888 29 ft 7 kts 168°
2026-04-22 10:30 -33.94597 151.17900 29 ft 7 kts 168°
2026-04-22 10:31 -33.94646 151.17912 29 ft 7 kts 168°
2026-04-22 10:31 -33.94696 151.17926 29 ft 7 kts 167°
2026-04-22 10:31 -33.94749 151.17940 29 ft 8 kts 167°
2026-04-22 10:31 -33.94805 151.17955 29 ft 8 kts 167°
2026-04-22 10:32 -33.94864 151.17971 29 ft 9 kts 167°
2026-04-22 10:32 -33.94923 151.17984 29 ft 9 kts 168°
2026-04-22 10:32 -33.94981 151.17999 29 ft 8 kts 168°
2026-04-22 10:32 -33.95036 151.18014 29 ft 8 kts 168°
2026-04-22 10:33 -33.95085 151.18044 29 ft 8 kts 134°
2026-04-22 10:33 -33.95097 151.18105 29 ft 8 kts 89°
2026-04-22 10:33 -33.95088 151.18167 29 ft 7 kts 78°
2026-04-22 10:33 -33.95078 151.18227 29 ft 7 kts 79°
2026-04-22 10:34 -33.95068 151.18283 29 ft 7 kts 77°
2026-04-22 10:34 -33.95058 151.18339 29 ft 7 kts 77°
2026-04-22 10:34 -33.95048 151.18394 29 ft 7 kts 77°
2026-04-22 10:34 -33.95038 151.18449 29 ft 7 kts 77°
2026-04-22 10:35 -33.95028 151.18502 29 ft 6 kts 77°
2026-04-22 10:35 -33.95019 151.18553 29 ft 6 kts 77°
2026-04-22 10:35 -33.95010 151.18604 29 ft 6 kts 77°
2026-04-22 10:35 -33.95001 151.18654 29 ft 6 kts 77°
2026-04-22 10:36 -33.94991 151.18704 28 ft 7 kts 77°
2026-04-22 10:36 -33.94980 151.18768 25 ft 9 kts 82°
2026-04-22 10:36 -33.95009 151.18838 24 ft 10 kts 146°
2026-04-22 10:36 -33.95075 151.18856 23 ft 10 kts 167°
2026-04-22 10:37 -33.95306 151.18918 22 ft 73 kts 168°
2026-04-22 10:37 -33.97201 151.19423 417 ft 180 kts 167°
2026-04-22 10:37 -33.98467 151.19829 1258 ft 191 kts 154°
2026-04-22 10:38 -33.99490 151.20891 2001 ft 204 kts 127°
2026-04-22 10:38 -34.00174 151.22341 2957 ft 192 kts 123°
2026-04-22 10:38 -34.00837 151.23666 3931 ft 180 kts 126°
2026-04-22 10:38 -34.01451 151.24990 4673 ft 188 kts 124°
2026-04-22 10:39 -34.02372 151.26082 4999 ft 192 kts 145°
2026-04-22 10:39 -34.03494 151.27153 5217 ft 216 kts 143°
2026-04-22 10:39 -34.04698 151.28336 5587 ft 228 kts 143°
2026-04-22 10:39 -34.05934 151.29551 6078 ft 235 kts 143°
2026-04-22 10:40 -34.07207 151.30802 6671 ft 237 kts 143°
2026-04-22 10:40 -34.08496 151.32065 7240 ft 239 kts 143°
2026-04-22 10:40 -34.09779 151.33321 7800 ft 240 kts 142°
2026-04-22 10:40 -34.11068 151.34624 8321 ft 244 kts 135°
2026-04-22 10:41 -34.11908 151.36411 8887 ft 249 kts 108°
2026-04-22 10:41 -34.11970 151.38519 9436 ft 258 kts 81°
2026-04-22 10:41 -34.11199 151.40474 9980 ft 266 kts 57°
2026-04-22 10:41 -34.09989 151.42184 10527 ft 270 kts 51°
2026-04-22 10:42 -34.08698 151.43850 10979 ft 274 kts 51°
2026-04-22 10:42 -34.07394 151.45539 11457 ft 276 kts 51°
2026-04-22 10:42 -34.05892 151.47020 11888 ft 285 kts 30°
2026-04-22 10:42 -34.04003 151.47803 12401 ft 289 kts 18°
2026-04-22 10:43 -34.02041 151.48430 12856 ft 292 kts 17°
2026-04-22 10:43 -34.00087 151.49039 13310 ft 295 kts 17°
2026-04-22 10:43 -33.98087 151.49670 13779 ft 297 kts 17°
2026-04-22 10:43 -33.96074 151.50314 14228 ft 300 kts 18°
2026-04-22 10:44 -33.94066 151.50967 14617 ft 302 kts 18°
2026-04-22 10:44 -33.92021 151.51635 15034 ft 304 kts 18°
2026-04-22 10:44 -33.89966 151.52308 15440 ft 306 kts 18°
2026-04-22 10:44 -33.87900 151.52984 15826 ft 309 kts 18°
2026-04-22 10:45 -33.85840 151.53658 16209 ft 311 kts 18°
2026-04-22 10:45 -33.83738 151.54346 16600 ft 313 kts 18°
2026-04-22 10:45 -33.81646 151.55030 16990 ft 315 kts 18°
2026-04-22 10:45 -33.79520 151.55723 17361 ft 318 kts 18°
2026-04-22 10:46 -33.77365 151.56426 17736 ft 320 kts 18°
2026-04-22 10:46 -33.75211 151.57127 18102 ft 322 kts 18°
2026-04-22 10:46 -33.73034 151.57835 18478 ft 324 kts 17°
2026-04-22 10:46 -33.70875 151.58537 18801 ft 326 kts 17°
2026-04-22 10:47 -33.68667 151.59256 19094 ft 330 kts 17°
2026-04-22 10:47 -33.66406 151.59993 19243 ft 342 kts 17°
2026-04-22 10:47 -33.64109 151.60945 19301 ft 357 kts 32°
2026-04-22 10:47 -33.61992 151.62554 19442 ft 372 kts 37°
2026-04-22 10:48 -33.59797 151.64353 19571 ft 390 kts 37°
2026-04-22 10:48 -33.57503 151.66224 19687 ft 407 kts 37°
2026-04-22 10:48 -33.55097 151.68144 19873 ft 420 kts 36°
2026-04-22 10:48 -33.52627 151.70086 20282 ft 426 kts 36°
2026-04-22 10:49 -33.50116 151.71936 20795 ft 430 kts 30°
2026-04-22 10:49 -33.47336 151.73366 21292 ft 436 kts 19°
2026-04-22 10:49 -33.44394 151.74318 21777 ft 440 kts 15°
2026-04-22 10:49 -33.41411 151.75207 22220 ft 444 kts 15°
2026-04-22 10:50 -33.38436 151.76128 22657 ft 448 kts 16°
2026-04-22 10:50 -33.35407 151.77098 23098 ft 452 kts 16°
2026-04-22 10:50 -33.32364 151.78087 23541 ft 455 kts 16°
2026-04-22 10:50 -33.29296 151.79086 23943 ft 459 kts 16°
2026-04-22 10:51 -33.26188 151.80098 24306 ft 462 kts 16°
2026-04-22 10:51 -33.23071 151.81109 24675 ft 465 kts 16°
2026-04-22 10:51 -33.19970 151.82112 25050 ft 467 kts 15°
2026-04-22 10:51 -33.16820 151.83127 25409 ft 470 kts 15°
2026-04-22 10:52 -33.13647 151.84149 25757 ft 473 kts 15°
2026-04-22 10:52 -33.10451 151.85176 26100 ft 476 kts 15°
2026-04-22 10:52 -33.07244 151.86207 26436 ft 479 kts 15°
2026-04-22 10:52 -33.04014 151.87243 26772 ft 481 kts 15°
2026-04-22 10:53 -33.00773 151.88283 27095 ft 484 kts 15°
2026-04-22 10:53 -32.97538 151.89320 27401 ft 486 kts 15°
2026-04-22 10:53 -32.94258 151.90370 27720 ft 489 kts 15°
2026-04-22 10:53 -32.90956 151.91427 28029 ft 491 kts 15°
2026-04-22 10:54 -32.87648 151.92485 28321 ft 493 kts 15°
2026-04-22 10:54 -32.80991 151.94612 28352 ft 499 kts 15°
2026-04-22 10:55 -32.74314 151.96742 28342 ft 492 kts 15°
2026-04-22 10:55 -32.67676 151.98856 28354 ft 494 kts 14°
2026-04-22 10:56 -32.61039 152.00966 28357 ft 495 kts 14°
2026-04-22 10:56 -32.54382 152.03080 28652 ft 499 kts 14°
2026-04-22 10:56 -32.51020 152.04146 29047 ft 499 kts 14°
2026-04-22 10:57 -32.47659 152.05211 29387 ft 501 kts 14°
2026-04-22 10:57 -32.44274 152.06283 29655 ft 503 kts 14°
2026-04-22 10:57 -32.40907 152.07349 29903 ft 506 kts 14°
2026-04-22 10:57 -32.37480 152.08432 30162 ft 508 kts 14°
2026-04-22 10:58 -32.34064 152.09511 30517 ft 508 kts 14°
2026-04-22 10:58 -32.30643 152.10591 30870 ft 506 kts 14°
2026-04-22 10:58 -32.27271 152.11655 31201 ft 505 kts 14°
2026-04-22 10:58 -32.23864 152.12728 31528 ft 505 kts 14°
2026-04-22 10:59 -32.20460 152.13800 31842 ft 504 kts 14°
2026-04-22 10:59 -32.17057 152.14871 32154 ft 504 kts 14°
2026-04-22 10:59 -32.13708 152.15924 32450 ft 503 kts 14°
2026-04-22 10:59 -32.10323 152.16987 32775 ft 502 kts 14°
2026-04-22 11:00 -32.06943 152.18048 33090 ft 501 kts 14°
2026-04-22 11:00 -32.03563 152.19108 33411 ft 501 kts 14°
2026-04-22 11:00 -32.00234 152.20151 33685 ft 500 kts 14°
2026-04-22 11:00 -31.96856 152.21209 33953 ft 500 kts 14°
2026-04-22 11:01 -31.93492 152.22262 34242 ft 500 kts 14°
2026-04-22 11:01 -31.90124 152.23315 34506 ft 499 kts 14°
2026-04-22 11:01 -31.86812 152.24349 34751 ft 499 kts 13°
2026-04-22 11:01 -31.83449 152.25385 34969 ft 498 kts 13°
2026-04-22 11:02 -31.80077 152.26426 35186 ft 499 kts 13°
2026-04-22 11:02 -31.76717 152.27470 35351 ft 499 kts 13°
2026-04-22 11:02 -31.73352 152.28518 35345 ft 501 kts 13°
2026-04-22 11:03 -31.66653 152.30607 35350 ft 499 kts 13°
2026-04-22 11:03 -31.59934 152.32699 35359 ft 497 kts 13°
2026-04-22 11:04 -31.53299 152.34759 35361 ft 495 kts 13°
2026-04-22 11:04 -31.46636 152.36823 35352 ft 494 kts 13°
2026-04-22 11:05 -31.40001 152.38876 35351 ft 492 kts 13°
2026-04-22 11:05 -31.33414 152.40911 35354 ft 492 kts 13°
2026-04-22 11:06 -31.26816 152.42947 35343 ft 491 kts 13°
2026-04-22 11:06 -31.20189 152.44989 35349 ft 491 kts 13°
2026-04-22 11:07 -31.13572 152.47025 35351 ft 491 kts 13°
2026-04-22 11:07 -31.06985 152.49048 35337 ft 492 kts 13°
2026-04-22 11:08 -31.00361 152.51080 35339 ft 492 kts 13°
2026-04-22 11:08 -30.93774 152.53098 35345 ft 492 kts 13°
2026-04-22 11:09 -30.87133 152.55131 35340 ft 493 kts 13°
2026-04-22 11:09 -30.80461 152.57169 35341 ft 494 kts 13°
2026-04-22 11:10 -30.73872 152.59396 35336 ft 496 kts 16°
2026-04-22 11:10 -30.67306 152.61849 35332 ft 497 kts 16°
2026-04-22 11:11 -30.60697 152.64303 35330 ft 498 kts 16°
2026-04-22 11:11 -30.54105 152.66707 35339 ft 498 kts 16°
2026-04-22 11:12 -30.47479 152.69120 35327 ft 498 kts 15°
2026-04-22 11:12 -30.40863 152.71504 35328 ft 496 kts 15°
2026-04-22 11:13 -30.34292 152.73866 35319 ft 495 kts 15°
2026-04-22 11:13 -30.27741 152.76222 35305 ft 494 kts 15°
2026-04-22 11:14 -30.21161 152.78586 35305 ft 493 kts 15°
2026-04-22 11:14 -30.14610 152.80936 35304 ft 492 kts 15°
2026-04-22 11:15 -30.08107 152.83265 35300 ft 491 kts 15°
2026-04-22 11:15 -30.01567 152.85593 35303 ft 491 kts 15°
2026-04-22 11:16 -29.95020 152.87929 35294 ft 492 kts 15°
2026-04-22 11:16 -29.88496 152.90260 35290 ft 492 kts 15°
2026-04-22 11:17 -29.81934 152.92597 35293 ft 493 kts 15°
2026-04-22 11:17 -29.75391 152.94924 35290 ft 494 kts 15°
2026-04-22 11:18 -29.68802 152.97266 35290 ft 494 kts 14°
2026-04-22 11:18 -29.62254 152.99589 35287 ft 495 kts 14°
2026-04-22 11:19 -29.55661 153.01926 35288 ft 495 kts 14°
2026-04-22 11:19 -29.49096 153.04250 35288 ft 495 kts 14°
2026-04-22 11:20 -29.43610 153.06190 35287 ft 495 kts 14°
2026-04-22 11:20 -29.37015 153.08518 35289 ft 495 kts 14°
2026-04-22 11:21 -29.29350 153.11221 35234 ft 496 kts 14°
2026-04-22 11:21 -29.27157 153.11993 35059 ft 497 kts 14°
2026-04-22 11:21 -29.23865 153.13152 34812 ft 493 kts 14°
2026-04-22 11:21 -29.20584 153.14306 34580 ft 492 kts 14°
2026-04-22 11:22 -29.17304 153.15459 34352 ft 493 kts 14°
2026-04-22 11:22 -29.14021 153.16612 34094 ft 494 kts 14°
2026-04-22 11:22 -29.10769 153.17753 33824 ft 494 kts 14°
2026-04-22 11:22 -29.07471 153.18911 33582 ft 495 kts 14°
2026-04-22 11:23 -29.04171 153.20068 33309 ft 495 kts 14°
2026-04-22 11:23 -29.00868 153.21226 33044 ft 494 kts 14°
2026-04-22 11:23 -28.97581 153.22378 32788 ft 493 kts 14°
2026-04-22 11:23 -28.94309 153.23524 32500 ft 489 kts 14°
2026-04-22 11:24 -28.91073 153.24658 32071 ft 484 kts 14°
2026-04-22 11:24 -28.87865 153.25780 31627 ft 480 kts 14°
2026-04-22 11:24 -28.84693 153.26889 31183 ft 476 kts 14°
2026-04-22 11:24 -28.81534 153.27992 30740 ft 473 kts 14°
2026-04-22 11:25 -28.78399 153.29085 30287 ft 470 kts 14°
2026-04-22 11:25 -28.75316 153.30160 29777 ft 467 kts 14°
2026-04-22 11:25 -28.72222 153.31238 29280 ft 463 kts 14°
2026-04-22 11:25 -28.69152 153.32307 28813 ft 459 kts 14°
2026-04-22 11:26 -28.66115 153.33364 28352 ft 455 kts 14°
2026-04-22 11:26 -28.63100 153.34413 27899 ft 451 kts 14°
2026-04-22 11:26 -28.60111 153.35452 27450 ft 447 kts 14°
2026-04-22 11:26 -28.57146 153.36482 27008 ft 444 kts 14°
2026-04-22 11:27 -28.54192 153.37507 26562 ft 441 kts 15°
2026-04-22 11:27 -28.51297 153.38512 26129 ft 438 kts 15°
2026-04-22 11:27 -28.48401 153.39516 25690 ft 434 kts 15°
2026-04-22 11:27 -28.45511 153.40518 25243 ft 432 kts 15°
2026-04-22 11:28 -28.42634 153.41514 24815 ft 429 kts 15°
2026-04-22 11:28 -28.39815 153.42490 24368 ft 428 kts 15°
2026-04-22 11:28 -28.36966 153.43476 23917 ft 426 kts 15°
2026-04-22 11:28 -28.34123 153.44459 23425 ft 424 kts 15°
2026-04-22 11:29 -28.31308 153.45432 22964 ft 421 kts 15°
2026-04-22 11:29 -28.28541 153.46389 22502 ft 418 kts 15°
2026-04-22 11:29 -28.25772 153.47346 22066 ft 414 kts 15°
2026-04-22 11:29 -28.23026 153.48294 21673 ft 410 kts 15°
2026-04-22 11:30 -28.20304 153.49233 21240 ft 408 kts 14°
2026-04-22 11:30 -28.17572 153.50078 20801 ft 403 kts
2026-04-22 11:30 -28.14850 153.50095 20434 ft 391 kts 348°
2026-04-22 11:30 -28.12184 153.49580 20046 ft 386 kts 345°
2026-04-22 11:31 -28.09556 153.49000 19646 ft 384 kts 345°
2026-04-22 11:31 -28.06935 153.48411 19239 ft 382 kts 345°
2026-04-22 11:31 -28.04326 153.47836 18813 ft 380 kts 346°
2026-04-22 11:31 -28.01753 153.47283 18385 ft 379 kts 346°
2026-04-22 11:32 -27.99163 153.46737 17935 ft 377 kts 346°
2026-04-22 11:32 -27.96578 153.46199 17509 ft 374 kts 347°
2026-04-22 11:32 -27.94048 153.45675 17098 ft 372 kts 347°
2026-04-22 11:32 -27.91509 153.45151 16699 ft 369 kts 347°
2026-04-22 11:33 -27.88999 153.44632 16300 ft 366 kts 347°
2026-04-22 11:33 -27.86501 153.44116 15907 ft 363 kts 348°
2026-04-22 11:33 -27.84024 153.43605 15511 ft 361 kts 348°
2026-04-22 11:33 -27.81560 153.43097 15127 ft 358 kts 348°
2026-04-22 11:34 -27.79114 153.42592 14743 ft 356 kts 348°
2026-04-22 11:34 -27.76676 153.42090 14359 ft 354 kts 348°
2026-04-22 11:34 -27.74258 153.41591 13956 ft 353 kts 349°
2026-04-22 11:34 -27.71848 153.41095 13524 ft 351 kts 349°
2026-04-22 11:35 -27.69446 153.40600 13114 ft 349 kts 349°
2026-04-22 11:35 -27.67097 153.40117 12730 ft 346 kts 349°
2026-04-22 11:35 -27.64735 153.39631 12349 ft 344 kts 349°
2026-04-22 11:35 -27.62363 153.39357 12048 ft 339 kts 359°
2026-04-22 11:36 -27.60023 153.39424 11805 ft 335 kts
2026-04-22 11:36 -27.57700 153.39586 11547 ft 333 kts
2026-04-22 11:36 -27.55381 153.39752 11296 ft 333 kts
2026-04-22 11:36 -27.53071 153.39900 11045 ft 331 kts
2026-04-22 11:37 -27.50789 153.40028 10786 ft 326 kts
2026-04-22 11:37 -27.48527 153.40143 10379 ft 327 kts
2026-04-22 11:37 -27.46291 153.40250 10053 ft 325 kts
2026-04-22 11:37 -27.44054 153.40354 9919 ft 315 kts
2026-04-22 11:38 -27.41909 153.40452 9889 ft 302 kts
2026-04-22 11:38 -27.39799 153.40548 9367 ft 309 kts
2026-04-22 11:38 -27.35556 153.40742 8794 ft 304 kts
2026-04-22 11:39 -27.34131 153.40807 8614 ft 302 kts
2026-04-22 11:39 -27.31357 153.40934 8238 ft 299 kts
2026-04-22 11:39 -27.29273 153.41029 7963 ft 297 kts
2026-04-22 11:39 -27.27240 153.41121 7695 ft 296 kts
2026-04-22 11:40 -27.25180 153.41215 7431 ft 294 kts
2026-04-22 11:40 -27.23131 153.41309 7152 ft 292 kts
2026-04-22 11:40 -27.21099 153.41393 6893 ft 291 kts 359°
2026-04-22 11:40 -27.19165 153.40926 6616 ft 288 kts 333°
2026-04-22 11:41 -27.17522 153.39677 6364 ft 283 kts 317°
2026-04-22 11:41 -27.16023 153.38250 6089 ft 282 kts 316°
2026-04-22 11:41 -27.14542 153.36816 5830 ft 280 kts 313°
2026-04-22 11:41 -27.13569 153.35260 5582 ft 271 kts 287°
2026-04-22 11:42 -27.13260 153.33246 5360 ft 258 kts 262°
2026-04-22 11:42 -27.13631 153.31336 5138 ft 247 kts 242°
2026-04-22 11:42 -27.14348 153.29605 4921 ft 242 kts 239°
2026-04-22 11:42 -27.15067 153.27930 4737 ft 238 kts 239°
2026-04-22 11:43 -27.15857 153.26334 4507 ft 227 kts 222°
2026-04-22 11:43 -27.17055 153.25349 4429 ft 207 kts 208°
2026-04-22 11:43 -27.18272 153.24526 4186 ft 201 kts 205°
2026-04-22 11:43 -27.19486 153.23784 3930 ft 196 kts 203°
2026-04-22 11:44 -27.20681 153.23086 3687 ft 191 kts 202°
2026-04-22 11:44 -27.21834 153.22420 3446 ft 185 kts 202°
2026-04-22 11:44 -27.22963 153.21770 3205 ft 180 kts 202°
2026-04-22 11:44 -27.24064 153.21136 2964 ft 175 kts 201°
2026-04-22 11:45 -27.25141 153.20518 2728 ft 172 kts 202°
2026-04-22 11:45 -27.26193 153.19913 2504 ft 167 kts 201°
2026-04-22 11:45 -27.27212 153.19327 2301 ft 163 kts 201°
2026-04-22 11:45 -27.28212 153.18751 2077 ft 159 kts 201°
2026-04-22 11:46 -27.29164 153.18203 1876 ft 151 kts 201°
2026-04-22 11:46 -27.30102 153.17665 1661 ft 151 kts 201°
2026-04-22 11:46 -27.31014 153.17141 1463 ft 142 kts 202°
2026-04-22 11:46 -27.31860 153.16654 1287 ft 139 kts 202°
2026-04-22 11:47 -27.32723 153.16158 1089 ft 140 kts 202°
2026-04-22 11:47 -27.33590 153.15668 942 ft 138 kts 202°
2026-04-22 11:47 -27.34473 153.15192 821 ft 141 kts 204°
2026-04-22 11:47 -27.35336 153.14691 683 ft 140 kts 206°
2026-04-22 11:48 -27.36187 153.14149 405 ft 142 kts 205°
2026-04-22 11:48 -27.37070 153.13662 198 ft 141 kts 204°
2026-04-22 11:48 -27.37944 153.13156 24 ft 135 kts 207°
2026-04-22 11:48 -27.38690 153.12728 21 ft 103 kts 209°
2026-04-22 11:49 -27.39219 153.12427 19 ft 65 kts 211°
2026-04-22 11:49 -27.39512 153.12259 20 ft 33 kts 209°
2026-04-22 11:49 -27.39573 153.12104 20 ft 14 kts 292°
2026-04-22 11:49 -27.39549 153.12060 18 ft 6 kts 309°
2026-04-22 11:50 -27.39514 153.12043 18 ft 6 kts 359°
2026-04-22 11:50 -27.39476 153.12055 18 ft 6 kts 27°
2026-04-22 11:50 -27.39441 153.12074 18 ft 6 kts 24°
2026-04-22 11:50 -27.39406 153.12094 18 ft 6 kts 29°
2026-04-22 11:51 -27.39372 153.12114 18 ft 5 kts 28°
2026-04-22 11:51 -27.39338 153.12132 20 ft 6 kts 25°
2026-04-22 11:51 -27.39303 153.12151 18 ft 5 kts 26°
2026-04-22 11:51 -27.39270 153.12169 18 ft 5 kts 25°
2026-04-22 11:52 -27.39236 153.12187 19 ft 5 kts 27°
2026-04-22 11:52 -27.39205 153.12209 19 ft 5 kts 29°
2026-04-22 11:52 -27.39169 153.12229 17 ft 7 kts 26°
2026-04-22 11:52 -27.39125 153.12253 17 ft 8 kts 26°
2026-04-22 11:53 -27.39077 153.12281 18 ft 8 kts 28°
2026-04-22 11:53 -27.39030 153.12310 18 ft 8 kts 25°
2026-04-22 11:53 -27.38982 153.12333 17 ft 7 kts 25°
2026-04-22 11:53 -27.38937 153.12359 17 ft 7 kts 27°
2026-04-22 11:54 -27.38891 153.12386 19 ft 8 kts 28°
2026-04-22 11:54 -27.38845 153.12414 18 ft 7 kts 24°
2026-04-22 11:54 -27.38795 153.12425 19 ft 7 kts 354°
2026-04-22 11:54 -27.38755 153.12395 17 ft 7 kts 303°
2026-04-22 11:55 -27.38716 153.12366 17 ft 7 kts 352°
2026-04-22 11:55 -27.38669 153.12377 17 ft 7 kts 26°
2026-04-22 11:55 -27.38627 153.12400 18 ft 7 kts 25°
2026-04-22 11:55 -27.38581 153.12405 17 ft 7 kts 346°
2026-04-22 11:56 -27.38546 153.12373 17 ft 7 kts 313°
2026-04-22 11:56 -27.38503 153.12361 17 ft 7 kts
2026-04-22 11:56 -27.38459 153.12378 17 ft 7 kts 26°
2026-04-22 11:56 -27.38417 153.12402 17 ft 7 kts 26°
2026-04-22 11:57 -27.38371 153.12405 17 ft 7 kts 333°
2026-04-22 11:57 -27.38381 153.12367 17 ft 7 kts 198°
2026-04-22 11:57 -27.38423 153.12343 17 ft 7 kts 229°
2026-04-22 11:57 -27.38423 153.12293 17 ft 7 kts 305°
2026-04-22 11:58 -27.38380 153.12269 17 ft 7 kts 324°
2026-04-22 11:58 -27.38377 153.12267 17 ft 1 kts 325°
2026-04-22 11:58 -27.38372 153.12262 17 ft 1 kts 324°
2026-04-22 11:58 -27.38366 153.12258 17 ft 1 kts 324°
2026-04-22 11:59 -27.38364 153.12256 17 ft 0 kts 325°